Regional Weather Roundup
Issued by NWS

Home | Current Version | Previous Version | Text Only | Print | Product List | Glossary On
Versions: 1 2 3 4 5 6 7 8 9 10 11 12 13 14 15 16 17 18 19 20 21 22 23 24 25 26 27 28 29 30 31 32 33 34 35 36 37 38 39 40 41 42 43 44 45 46 47 48 49 50
000
ASUS46 KPQR 170210
RWROR

OREGON REGIONAL WEATHER ROUNDUP
NATIONAL WEATHER SERVICE PORTLAND OR
700 PM PDT TUE SEP 16 2014

NOTE: "FAIR" INDICATES FEW OR NO CLOUDS BELOW 12,000 FEET WITH
NO SIGNIFICANT WEATHER AND/OR OBSTRUCTIONS TO VISIBILITY.

ORZ001>013-170300-
NORTHWEST OREGON


CITY           SKY/WX    TMP DP  RH WIND       PRES   REMARKS
ASTORIA        MOCLDY    63  54  72 CALM      29.88F
NEWPORT        CLOUDY    61  55  82 SW5       29.92S
PORTLAND       MOCLDY    71  55  56 W7        29.86S
VANCOUVER WA   PTCLDY    71  53  52 NW5       29.86R
SCAPPOOSE      MOCLDY    70  55  59 N5        29.86R
HILLSBORO      MOCLDY    70  55  59 NE6       29.86S
AURORA         MOCLDY    74  53  48 NE6       29.86S
MCMINNVILLE    MOCLDY    74  55  51 SE5       29.85S
SALEM          MOCLDY    75  51  43 NE7       29.84S
CORVALLIS      PTCLDY    70  54  56 NW12      29.86S
EUGENE         CLOUDY    75  52  44 N6        29.84S
$$

ORZ021-028-170300-
SOUTHWEST OREGON


CITY           SKY/WX    TMP DP  RH WIND       PRES   REMARKS
NORTH BEND     CLOUDY    61  57  88 NW5       29.90S
BROOKINGS      MOCLDY    65  58  78 CALM      29.87F
ROSEBURG       CLOUDY    79  51  37 N9        29.83R
SEXTON SUMMIT  MOCLDY    63  40  42 NW6       29.96S
MEDFORD        MOCLDY    83  41  22 NW8       29.82S
$$

ORZ009-041-170300-
COLUMBIA GORGE


CITY           SKY/WX    TMP DP  RH WIND       PRES   REMARKS
TROUTDALE      PTCLDY    72  54  53 W3        29.84S
THE DALLES     MOCLDY    79  47  32 NW16G26   29.76R
$$

ORZ029>031-042>050-061>064-170300-
EASTERN OREGON


CITY           SKY/WX    TMP DP  RH WIND       PRES   REMARKS
REDMOND        PTCLDY    77  34  21 NW12      29.86R
BEND           PTCLDY    75  36  23 NW10G16   29.90R
KLAMATH FALLS  CLOUDY    73  28  18 S13       29.95R
LAKEVIEW       PTCLDY    72  28  20 W7        30.00S
HERMISTON      MOCLDY    78  45  30 CALM      29.74S
PENDLETON      MOCLDY    78  33  19 W6        29.79S
JOHN DAY       CLEAR     81  27  13 W8        29.86R
MEACHAM        PTCLDY    68  32  26 CALM      29.93R
LA GRANDE      CLEAR     81  34  18 W14       29.83R
BAKER CITY     CLEAR     76  43  30 SE9       29.84S
BURNS          CLEAR     73  32  22 SW7       29.90S
ROME             N/A     81  34  18 S8        29.89S
ONTARIO        CLEAR     81  53  37 CALM      29.78F
$$


USA.gov is the U.S. government's official web portal to all federal, state and local government web resources and services.